User: anonymous
Location: San Francisco
(37.7750°N, 122.4180°W)
Time: 21:18:26
(UTC-07:00)
Language:

GP-B - Orbit

View from above orbital plane
View from above orbital plane
View from above satellite
View from above satellite

Ground track
Ground track

The orbit data is extracted from the following two-line orbital elements,

1 28230U 04014A   14265.09653026  .00000506  00000-0  68594-4 0  1688
2 28230 089.8849 138.6787 0003469 110.8054 249.3540 14.77632411561504
Epoch (UTC): 22 September 2014 02:19:00
Eccentricity: 0.0003469
inclination: 89.8849°
perigee height: 634 km
apogee height: 639 km
right ascension of ascending node: 138.6787°
argument of perigee: 110.8054°
revolutions per day: 14.77632411
mean anomaly at epoch: 249.3540°
orbit number at epoch: 56150

The dashed part of the orbit path shows where the satellite is in the earth's shadow,  

DLR